Regional Weather Roundup
Issued by NWS

Home | Current Version | Previous Version | Graphics & Text | Print | Product List | Glossary On
Versions: 1 2 3 4 5 6 7 8 9 10 11 12 13 14 15 16 17 18 19 20 21 22 23 24 25 26 27 28 29 30 31 32 33 34 35 36 37 38 39 40 41 42 43 44 45 46 47 48 49 50
000
ASUS45 KTFX 151904
RWRMT
MONTANA HOURLY WEATHER ROUNDUP
NATIONAL WEATHER SERVICE GREAT FALLS MT
104 PM MDT MON SEP 15 2014

NOTE: "FAIR" INDICATES FEW OR NO CLOUDS BELOW 12000 FEET WITH NO
SIGNIFICANT WEATHER AND/OR OBSTRUCTIONS TO VISIBILITY.

* THESE STATIONS ARE NOT UNDER NWS QUALITY CONTROL. THEY DO NOT
   REPORT WEATHER SUCH AS PRECIPITATION OR FOG.

MTZ001>007-043-152000-
WEST OF THE DIVIDE
CITY           SKY/WX    TMP DP  RH WIND       PRES   REMARKS
KALISPELL      SUNNY     66  39  37 CALM      30.09F
MISSOULA       SUNNY     66  34  31 CALM      30.11F
BUTTE          SUNNY     70  30  23 N6        30.18F
MULLAN PASS    SUNNY     63  30  29 N/A       30.18S
* LINCOLN      N/A       65  35  33 S3         N/A
* LOOKOUT PASS N/A       66  36  33 S4G9       N/A
* POLSON       N/A       68  41  38 S4         N/A
* RONAN APT    SUNNY     66  43  43 N/A        N/A
* SEELEY LAKE  N/A       67  35  31 S3         N/A
* THOMP F APT  SUNNY     71  30  22 SW4        N/A
$$

MTZ008-052>055-152000-
SOUTHWEST MONTANA
CITY           SKY/WX    TMP DP  RH WIND       PRES   REMARKS
BOZEMAN        SUNNY     63  37  38 SW3       30.16F
DILLON         SUNNY     70  32  25 CALM      30.17F
* THREE FORKS  SUNNY     64  63  97 N/A        N/A
* BOULDER HILL N/A       61  33  35 SW13       N/A
* MONIDA PASS  N/A       69  26  20 NW16       N/A
* RAYNOLDS PAS N/A       70  54  57 S8G14      N/A
* WHITEHALL    N/A       65  39  39 S4         N/A
* WISE RIVER   N/A       62  29  29 N3         N/A
$$

MTZ009>010-012-014-046-048-049-054-152000-
EAST SLOPES AND CENTRAL MONTANA
CITY           SKY/WX    TMP DP  RH WIND       PRES   REMARKS
CUT BANK       SUNNY     66  39  37 VRB7      30.07F
GREAT FALLS    SUNNY     70  39  32 VRB5      30.07F
HELENA         SUNNY     64  39  40 CALM      30.12F
MALMSTROM AFB  SUNNY     68  41  38 N7        30.09F
* CONRAD       SUNNY     70  39  32 E5         N/A
* EAST GLACIER N/A       68  34  28 W10G18     N/A
* MONARCH      N/A       67  27  22 NW6        N/A
* PENDROY      N/A       70  39  32 SE4        N/A
* ROGERS PASS  N/A       65  26  23 SE13G20    N/A
* SAINT MARY   N/A       70  34  27 S8G14      N/A
* SWEET GRASS  N/A       63  38  40 S16        N/A
$$

MTZ011-013-016-021-035-040-045-047-050-051-152000-
NORTH CENTRAL MONTANA
CITY           SKY/WX    TMP DP  RH WIND       PRES   REMARKS
HAVRE          SUNNY     66  43  43 CALM      30.08F
LEWISTOWN      SUNNY     70  37  30 E3        30.10F
* CHESTER      N/A       65  40  40 SE4G10     N/A
* DENTON       N/A       70  34  27 SE12       N/A
* GEYSER       N/A       68  33  27 N3G8       N/A
* JUDITH GAP   N/A       61  36  39 S12G18     N/A
* LOMA         N/A       66  43  43 SE1        N/A
$$

MTZ017>020-022>027-061-062-152000-
NORTHEAST MONTANA
CITY           SKY/WX    TMP DP  RH WIND       PRES   REMARKS
GLASGOW        SUNNY     64  37  37 S8        30.13F
GLENDIVE       SUNNY     63  37  38 S13       30.19F
JORDAN         SUNNY     66  36  33 S9        30.13F
SIDNEY         SUNNY     64  34  33 S10G16    30.19F
WOLF POINT     SUNNY     68  34  28 SW7       30.14F
* BEAVER HILL  N/A       62  30  30 S8G16      N/A
* CIRCLE       N/A       66  38  36 SE5        N/A
* LINDSAY DVD  N/A       62  31  31 S10G16     N/A
* NAVAJO       N/A       64  32  30 W13G20     N/A
* SACO         N/A       67  38  35 S8         N/A
$$

MTZ028>042-056>058-152000-
SOUTHCENTRAL AND SOUTHEAST MONTANA
CITY           SKY/WX    TMP DP  RH WIND       PRES   REMARKS
BAKER          SUNNY     63  39  41 SE9       30.20F
BILLINGS       SUNNY     64  39  40 NE3       30.14F
LIVINGSTON     SUNNY     64  39  40 VRB6      30.15F
MILES CITY     SUNNY     66  37  34 SE10      30.16F
* LAUREL APT   SUNNY     63  39  41 E6         N/A
* ROUNDUP APT  SUNNY     64  43  47 S8         N/A
* ALZADA       N/A       63  43  48 E6         N/A
* HYSHAM       N/A       69  33  26 S4G9       N/A
* LAME DEER    N/A       64  37  37 SE9        N/A
* REED POINT   N/A       65  38  37 NE4        N/A
* ROSCOE HILL  N/A       61  34  36 VRB6       N/A
$$

REGIONAL REPORTS...DAKOTAS
CITY           SKY/WX    TMP DP  RH WIND       PRES   REMARKS
WILLISTON      SUNNY     64  32  30 S12       30.17F
DICKINSON      SUNNY     63  37  38 S8        30.19F
BEACH          N/A       63  32  31 S8        30.20S
CROSBY         SUNNY     66  34  31 SW13G21   30.15F
TIOGA          SUNNY     64  32  30 S9        30.19F
WATFORD CITY   SUNNY     64  32  30 SW12      30.16F
BISMARCK       SUNNY     66  36  33 W14G20    30.23F
GRAND FORKS    PTCLDY    64  37  37 VRB7      30.18F
FARGO          SUNNY     64  36  35 W7        30.22F
BUFFALO SD     SUNNY     63  37  38 SW12G18   30.15F
RAPID CITY     SUNNY     63  43  48 S15G24    30.24F
$$

REGIONAL REPORTS...WYOMING/IDAHO/WASHINGTON
CITY           SKY/WX    TMP DP  RH WIND       PRES   REMARKS
GILLETTE       SUNNY     68  43  40 S15       30.18F
SHERIDAN       SUNNY     66  41  40 CALM      30.15F
CODY           SUNNY     63  41  45 CALM      30.17F
YELLOWSTONE LA SUNNY     61  36  39 VRB3      30.34S
SALMON         SUNNY     64  30  28 N3        30.14F
MULLAN PASS    SUNNY     63  30  29 N/A       30.18S
SAND POINT     SUNNY     68  45  44 E6        30.04F
SPOKANE        SUNNY     70  39  32 NE5       30.02F

$$



USA.gov is the U.S. government's official web portal to all federal, state and local government web resources and services.